CCA133 ZBAA-RJTT

Flight info

Callsign CCA133
Flight time 2h 39m
Altitude 37100
Route MUGLO9Z MUGLO W34 VAPGU W100 ORAVA W201 UNSEK A326 DONVO G597 AGAVO/N0468F371 Y644 EGOBA G597 LANAT Y71 XAC
Aircraft B77W/H-SDE1E2E3FGHIJ2J3J4J5M1RWXY/LB1D1

Departure

Time 2026-05-06 08:24
Airport Beijing Capital International Airport (ZBAA)

Arrival

Time 2026-05-06 11:04
Airport Tokyo Haneda International Airport (RJTT)
Time Latitude Longitude Altitude Speed Heading
2026-05-06 07:56 40.05909 116.60711 124 ft 0 kts 66°
2026-05-06 08:15 40.05906 116.60704 124 ft 2 kts 66°
2026-05-06 08:15 40.05900 116.60686 124 ft 2 kts 66°
2026-05-06 08:15 40.05894 116.60668 124 ft 2 kts 66°
2026-05-06 08:16 40.05888 116.60651 124 ft 2 kts 68°
2026-05-06 08:16 40.05885 116.60632 124 ft 2 kts 92°
2026-05-06 08:16 40.05887 116.60613 124 ft 2 kts 112°
2026-05-06 08:16 40.05895 116.60596 124 ft 2 kts 132°
2026-05-06 08:17 40.05906 116.60583 124 ft 2 kts 152°
2026-05-06 08:17 40.05919 116.60577 124 ft 1 kts 171°
2026-05-06 08:17 40.05925 116.60576 124 ft 0 kts 174°
2026-05-06 08:19 40.05922 116.60576 124 ft 1 kts 173°
2026-05-06 08:20 40.05908 116.60579 124 ft 2 kts 172°
2026-05-06 08:20 40.05882 116.60583 124 ft 4 kts 172°
2026-05-06 08:20 40.05845 116.60590 124 ft 6 kts 172°
2026-05-06 08:20 40.05798 116.60598 124 ft 7 kts 174°
2026-05-06 08:21 40.05741 116.60606 124 ft 8 kts 174°
2026-05-06 08:21 40.05678 116.60609 124 ft 9 kts 197°
2026-05-06 08:21 40.05650 116.60538 124 ft 10 kts 274°
2026-05-06 08:21 40.05648 116.60441 124 ft 11 kts 264°
2026-05-06 08:22 40.05639 116.60352 124 ft 9 kts 264°
2026-05-06 08:22 40.05632 116.60259 124 ft 10 kts 264°
2026-05-06 08:22 40.05623 116.60161 124 ft 11 kts 263°
2026-05-06 08:22 40.05615 116.60066 124 ft 4 kts 264°
2026-05-06 08:23 40.05622 116.60023 124 ft 4 kts 301°
2026-05-06 08:23 40.05648 116.60003 124 ft 4 kts 346°
2026-05-06 08:23 40.05680 116.59995 124 ft 5 kts 351°
2026-05-06 08:23 40.05757 116.59982 124 ft 23 kts 355°
2026-05-06 08:24 40.06220 116.59908 124 ft 111 kts 353°
2026-05-06 08:24 40.07261 116.59735 166 ft 184 kts 354°
2026-05-06 08:24 40.08548 116.59548 1090 ft 189 kts 355°
2026-05-06 08:24 40.09866 116.59339 1914 ft 198 kts 355°
2026-05-06 08:25 40.11279 116.59117 2435 ft 214 kts 355°
2026-05-06 08:25 40.12814 116.58876 2934 ft 232 kts 354°
2026-05-06 08:25 40.14475 116.58614 3463 ft 251 kts 354°
2026-05-06 08:25 40.16235 116.58336 4223 ft 260 kts 353°
2026-05-06 08:26 40.18045 116.58050 5218 ft 260 kts 353°
2026-05-06 08:26 40.19823 116.57769 6100 ft 263 kts 352°
2026-05-06 08:26 40.21627 116.57484 7006 ft 264 kts 351°
2026-05-06 08:26 40.23456 116.57193 7890 ft 265 kts 349°
2026-05-06 08:27 40.25182 116.56495 8709 ft 264 kts 328°
2026-05-06 08:27 40.26650 116.55068 9580 ft 264 kts 319°
2026-05-06 08:27 40.28019 116.53498 10306 ft 270 kts 316°
2026-05-06 08:27 40.29342 116.51634 10672 ft 289 kts 307°
2026-05-06 08:28 40.30466 116.49378 11032 ft 308 kts 297°
2026-05-06 08:28 40.31313 116.46717 11428 ft 328 kts 287°
2026-05-06 08:28 40.31776 116.43704 11888 ft 345 kts 276°
2026-05-06 08:28 40.31810 116.40542 12548 ft 356 kts 269°
2026-05-06 08:29 40.31741 116.37289 13534 ft 357 kts 269°
2026-05-06 08:29 40.31682 116.34049 14512 ft 358 kts 266°
2026-05-06 08:29 40.31339 116.30846 15389 ft 362 kts 257°
2026-05-06 08:29 40.30588 116.27679 16271 ft 366 kts 249°
2026-05-06 08:30 40.29447 116.24708 17127 ft 370 kts 240°
2026-05-06 08:30 40.27930 116.21995 18007 ft 374 kts 232°
2026-05-06 08:30 40.26088 116.19645 18863 ft 380 kts 223°
2026-05-06 08:30 40.23892 116.17653 19625 ft 388 kts 214°
2026-05-06 08:31 40.21523 116.15965 20408 ft 393 kts 213°
2026-05-06 08:31 40.19087 116.14278 21170 ft 396 kts 212°
2026-05-06 08:31 40.16675 116.12618 22003 ft 396 kts 212°
2026-05-06 08:31 40.14223 116.10935 22753 ft 399 kts 212°
2026-05-06 08:32 40.11780 116.09263 23476 ft 401 kts 213°
2026-05-06 08:32 40.09282 116.07575 24084 ft 407 kts 211°
2026-05-06 08:32 40.06618 116.06216 24730 ft 416 kts 203°
2026-05-06 08:32 40.03805 116.05380 25454 ft 424 kts 195°
2026-05-06 08:33 40.00829 116.05077 26042 ft 436 kts 188°
2026-05-06 08:33 39.97741 116.05360 26450 ft 453 kts 179°
2026-05-06 08:33 39.94625 116.06302 26864 ft 470 kts 170°
2026-05-06 08:33 39.91550 116.07784 27485 ft 476 kts 167°
2026-05-06 08:34 39.88429 116.09366 27937 ft 482 kts 167°
2026-05-06 08:34 39.82124 116.12591 28821 ft 497 kts 163°
2026-05-06 08:34 39.79051 116.14758 29373 ft 507 kts 157°
2026-05-06 08:35 39.76037 116.17120 29910 ft 510 kts 156°
2026-05-06 08:35 39.73001 116.19514 30566 ft 510 kts 157°
2026-05-06 08:35 39.69991 116.21883 31454 ft 503 kts 158°
2026-05-06 08:35 39.66998 116.24232 32231 ft 498 kts 159°
2026-05-06 08:36 39.64047 116.26537 32819 ft 497 kts 159°
2026-05-06 08:36 39.61109 116.28825 33300 ft 497 kts 159°
2026-05-06 08:36 39.58140 116.31134 33807 ft 497 kts 159°
2026-05-06 08:36 39.55186 116.33429 34407 ft 495 kts 159°
2026-05-06 08:37 39.52219 116.35730 34895 ft 496 kts 160°
2026-05-06 08:37 39.46378 116.40516 34908 ft 507 kts 152°
2026-05-06 08:38 39.40744 116.46306 34908 ft 523 kts 151°
2026-05-06 08:38 39.35010 116.52241 34910 ft 537 kts 150°
2026-05-06 08:39 39.29133 116.58313 34906 ft 543 kts 150°
2026-05-06 08:39 39.23226 116.64405 34904 ft 540 kts 150°
2026-05-06 08:40 39.17921 116.71552 34881 ft 559 kts 134°
2026-05-06 08:40 39.15839 116.75836 34877 ft 571 kts 124°
2026-05-06 08:40 39.14173 116.80552 34883 ft 582 kts 116°
2026-05-06 08:41 39.12362 116.90740 34880 ft 593 kts 98°
2026-05-06 08:41 39.12032 117.01363 34888 ft 599 kts 95°
2026-05-06 08:42 39.11700 117.12032 34890 ft 595 kts 95°
2026-05-06 08:42 39.11284 117.22674 34894 ft 598 kts 96°
2026-05-06 08:43 39.10811 117.33316 34897 ft 594 kts 96°
2026-05-06 08:43 39.10301 117.43967 34899 ft 596 kts 95°
2026-05-06 08:44 39.09759 117.54576 34897 ft 592 kts 96°
2026-05-06 08:44 39.09193 117.65122 34902 ft 594 kts 97°
2026-05-06 08:45 39.08609 117.75713 34883 ft 593 kts 97°
2026-05-06 08:45 39.08017 117.86249 34885 ft 590 kts 96°
2026-05-06 08:46 39.07413 117.96768 34884 ft 592 kts 97°
2026-05-06 08:46 39.06434 118.07198 34901 ft 589 kts 104°
2026-05-06 08:47 39.04815 118.17519 34891 ft 588 kts 104°
2026-05-06 08:47 39.03184 118.27748 34896 ft 589 kts 104°
2026-05-06 08:48 39.01532 118.38066 34910 ft 590 kts 104°
2026-05-06 08:48 38.99868 118.48396 34910 ft 590 kts 104°
2026-05-06 08:49 38.98211 118.58630 34920 ft 589 kts 105°
2026-05-06 08:49 38.96532 118.68944 34890 ft 590 kts 105°
2026-05-06 08:50 38.94857 118.79168 34908 ft 591 kts 105°
2026-05-06 08:50 38.93150 118.89534 34908 ft 590 kts 105°
2026-05-06 08:51 38.91454 118.99769 34921 ft 591 kts 105°
2026-05-06 08:51 38.89735 119.10075 34919 ft 590 kts 105°
2026-05-06 08:52 38.87997 119.20435 34918 ft 592 kts 105°
2026-05-06 08:52 38.86256 119.30752 34924 ft 592 kts 105°
2026-05-06 08:53 38.84518 119.40991 34911 ft 588 kts 104°
2026-05-06 08:53 38.82767 119.51247 34922 ft 592 kts 104°
2026-05-06 08:54 38.80999 119.61554 34924 ft 592 kts 104°
2026-05-06 08:54 38.79235 119.71774 34909 ft 588 kts 105°
2026-05-06 08:55 38.77398 119.82059 34908 ft 588 kts 110°
2026-05-06 08:55 38.74719 119.91840 34905 ft 584 kts 114°
2026-05-06 08:56 38.71875 120.01611 34905 ft 586 kts 114°
2026-05-06 08:56 38.69040 120.11317 34913 ft 586 kts 114°
2026-05-06 08:57 38.66174 120.21098 34908 ft 586 kts 114°
2026-05-06 08:57 38.63330 120.30771 34908 ft 582 kts 114°
2026-05-06 08:58 38.60463 120.40485 34907 ft 584 kts 114°
2026-05-06 08:58 38.57604 120.50138 34906 ft 586 kts 114°
2026-05-06 08:59 38.55281 120.60130 34911 ft 588 kts 104°
2026-05-06 08:59 38.53637 120.70284 34887 ft 585 kts 103°
2026-05-06 09:00 38.51984 120.80495 34892 ft 589 kts 104°
2026-05-06 09:00 38.50317 120.90707 34891 ft 586 kts 103°
2026-05-06 09:01 38.48651 121.00834 34895 ft 584 kts 104°
2026-05-06 09:01 38.46972 121.10975 34901 ft 587 kts 103°
2026-05-06 09:02 38.45291 121.21185 34906 ft 586 kts 103°
2026-05-06 09:02 38.43637 121.31416 34906 ft 587 kts 103°
2026-05-06 09:03 38.41996 121.41573 34914 ft 586 kts 103°
2026-05-06 09:03 38.40343 121.51675 34922 ft 587 kts 103°
2026-05-06 09:04 38.38649 121.61833 34924 ft 586 kts 103°
2026-05-06 09:04 38.36955 121.71941 34911 ft 586 kts 103°
2026-05-06 09:05 38.35241 121.82112 34916 ft 586 kts 103°
2026-05-06 09:05 38.33524 121.92241 34923 ft 585 kts 103°
2026-05-06 09:06 38.31805 122.02331 34928 ft 586 kts 103°
2026-05-06 09:06 38.30080 122.12400 34933 ft 584 kts 103°
2026-05-06 09:07 38.28330 122.22556 34937 ft 585 kts 103°
2026-05-06 09:07 38.26737 122.32687 34945 ft 585 kts 100°
2026-05-06 09:08 38.24410 122.42449 34955 ft 581 kts 117°
2026-05-06 09:08 38.20180 122.51109 34963 ft 571 kts 134°
2026-05-06 09:09 38.14782 122.58412 34970 ft 567 kts 139°
2026-05-06 09:09 38.09267 122.65547 34978 ft 564 kts 140°
2026-05-06 09:10 38.03777 122.72697 34961 ft 568 kts 139°
2026-05-06 09:10 37.98331 122.79784 34977 ft 562 kts 139°
2026-05-06 09:11 37.92814 122.86934 34980 ft 565 kts 139°
2026-05-06 09:11 37.87322 122.94032 34990 ft 567 kts 139°
2026-05-06 09:12 37.81846 123.01092 34994 ft 564 kts 138°
2026-05-06 09:12 37.76316 123.08202 34999 ft 565 kts 139°
2026-05-06 09:13 37.70811 123.15263 35002 ft 566 kts 138°
2026-05-06 09:13 37.65300 123.22315 35014 ft 565 kts 138°
2026-05-06 09:14 37.59794 123.29346 35016 ft 568 kts 138°
2026-05-06 09:14 37.54546 123.36842 35031 ft 571 kts 129°
2026-05-06 09:15 37.49774 123.44862 35027 ft 570 kts 129°
2026-05-06 09:15 37.45032 123.52831 35031 ft 571 kts 129°
2026-05-06 09:16 37.40271 123.60803 35001 ft 568 kts 129°
2026-05-06 09:16 37.35541 123.68698 34933 ft 571 kts 129°
2026-05-06 09:17 37.30751 123.76671 34932 ft 570 kts 129°
2026-05-06 09:17 37.25976 123.84600 34942 ft 570 kts 129°
2026-05-06 09:18 37.21343 123.92645 34942 ft 572 kts 122°
2026-05-06 09:18 37.18213 124.01733 34943 ft 573 kts 104°
2026-05-06 09:19 37.17092 124.11533 34950 ft 566 kts 88°
2026-05-06 09:19 37.17402 124.21401 34957 ft 567 kts 84°
2026-05-06 09:20 37.17737 124.31236 34960 ft 566 kts 85°
2026-05-06 09:20 37.17992 124.41106 34969 ft 567 kts 85°
2026-05-06 09:21 37.18228 124.50917 34975 ft 563 kts 85°
2026-05-06 09:21 37.18451 124.60662 34977 ft 563 kts 85°
2026-05-06 09:22 37.18668 124.70515 34971 ft 566 kts 86°
2026-05-06 09:22 37.18874 124.80303 34975 ft 563 kts 85°
2026-05-06 09:23 37.19071 124.90061 34975 ft 563 kts 85°
2026-05-06 09:23 37.19260 124.99879 34981 ft 560 kts 85°
2026-05-06 09:24 37.19441 125.09614 34987 ft 563 kts 85°
2026-05-06 09:24 37.19614 125.19460 34992 ft 561 kts 86°
2026-05-06 09:25 37.19779 125.29205 34997 ft 562 kts 85°
2026-05-06 09:25 37.19936 125.39019 35003 ft 561 kts 85°
2026-05-06 09:26 37.20084 125.48782 35008 ft 562 kts 85°
2026-05-06 09:26 37.20222 125.58490 35011 ft 561 kts 85°
2026-05-06 09:27 37.20354 125.68326 34999 ft 562 kts 85°
2026-05-06 09:27 37.20476 125.78017 35005 ft 560 kts 86°
2026-05-06 09:28 37.20592 125.87787 35006 ft 559 kts 85°
2026-05-06 09:28 37.20701 125.97541 35011 ft 562 kts 85°
2026-05-06 09:29 37.20801 126.07265 35015 ft 559 kts 85°
2026-05-06 09:29 37.20894 126.17084 35017 ft 561 kts 85°
2026-05-06 09:30 37.20978 126.26778 35016 ft 560 kts 85°
2026-05-06 09:30 37.21054 126.36529 35021 ft 558 kts 85°
2026-05-06 09:31 37.21123 126.46299 35023 ft 560 kts 85°
2026-05-06 09:31 37.21182 126.55994 35022 ft 557 kts 85°
2026-05-06 09:32 37.21233 126.65754 35024 ft 558 kts 85°
2026-05-06 09:32 37.21275 126.75410 35015 ft 557 kts 86°
2026-05-06 09:33 37.21310 126.85149 35013 ft 558 kts 85°
2026-05-06 09:33 37.22279 126.94647 35009 ft 547 kts 69°
2026-05-06 09:34 37.25186 127.03262 35017 ft 529 kts 52°
2026-05-06 09:34 37.29593 127.10500 35023 ft 521 kts 42°
2026-05-06 09:35 37.34364 127.17396 35023 ft 517 kts 41°
2026-05-06 09:35 37.39107 127.24182 35035 ft 520 kts 41°
2026-05-06 09:36 37.43893 127.31006 35025 ft 518 kts 41°
2026-05-06 09:36 37.47999 127.38578 35018 ft 532 kts 58°
2026-05-06 09:37 37.50328 127.47529 35013 ft 549 kts 72°
2026-05-06 09:37 37.51829 127.56935 35012 ft 549 kts 73°
2026-05-06 09:38 37.53313 127.66357 35006 ft 547 kts 73°
2026-05-06 09:38 37.54790 127.75724 35001 ft 548 kts 73°
2026-05-06 09:39 37.56269 127.85134 34998 ft 546 kts 73°
2026-05-06 09:39 37.57734 127.94487 34993 ft 546 kts 73°
2026-05-06 09:40 37.59199 128.03882 34981 ft 549 kts 73°
2026-05-06 09:40 37.61385 128.17990 35000 ft 545 kts 73°
2026-05-06 09:41 37.62822 128.27325 35009 ft 544 kts 73°
2026-05-06 09:41 37.64264 128.36749 35013 ft 544 kts 73°
2026-05-06 09:42 37.65681 128.46054 35019 ft 544 kts 73°
2026-05-06 09:42 37.67098 128.55414 35017 ft 545 kts 73°
2026-05-06 09:43 37.68454 128.64867 34999 ft 545 kts 78°
2026-05-06 09:43 37.68294 128.74525 34995 ft 559 kts 96°
2026-05-06 09:44 37.66021 128.83975 34988 ft 564 kts 113°
2026-05-06 09:44 37.62053 128.92635 34974 ft 568 kts 120°
2026-05-06 09:45 37.57902 129.01085 34955 ft 566 kts 120°
2026-05-06 09:45 37.53772 129.09546 34953 ft 566 kts 120°
2026-05-06 09:46 37.49662 129.17993 34947 ft 566 kts 120°
2026-05-06 09:46 37.45552 129.26447 34953 ft 565 kts 119°
2026-05-06 09:47 37.41460 129.34862 34958 ft 565 kts 119°
2026-05-06 09:47 37.37369 129.43269 34954 ft 564 kts 119°
2026-05-06 09:48 37.33237 129.51746 34954 ft 564 kts 119°
2026-05-06 09:48 37.29153 129.60104 34951 ft 564 kts 119°
2026-05-06 09:49 37.25052 129.68480 34951 ft 563 kts 119°
2026-05-06 09:49 37.20921 129.76894 34951 ft 563 kts 119°
2026-05-06 09:50 37.16803 129.85263 34952 ft 563 kts 120°
2026-05-06 09:50 37.12677 129.93628 34951 ft 564 kts 119°
2026-05-06 09:51 37.08579 130.01910 34953 ft 562 kts 120°
2026-05-06 09:51 37.04437 130.10266 34957 ft 563 kts 119°
2026-05-06 09:52 37.00318 130.18553 34963 ft 561 kts 119°
2026-05-06 09:52 36.96182 130.26854 34964 ft 560 kts 120°
2026-05-06 09:53 36.92055 130.35115 34976 ft 561 kts 120°
2026-05-06 09:53 36.87924 130.43364 34976 ft 558 kts 119°
2026-05-06 09:54 36.83802 130.51575 34971 ft 562 kts 119°
2026-05-06 09:54 36.79657 130.59813 34980 ft 558 kts 120°
2026-05-06 09:55 36.75535 130.67984 34988 ft 557 kts 120°
2026-05-06 09:55 36.71409 130.76146 34988 ft 558 kts 120°
2026-05-06 09:56 36.67269 130.84317 34992 ft 556 kts 121°
2026-05-06 09:56 36.63146 130.92433 35003 ft 555 kts 120°
2026-05-06 09:57 36.59019 131.00539 35001 ft 552 kts 121°
2026-05-06 09:57 36.54894 131.08620 35009 ft 553 kts 121°
2026-05-06 09:58 36.50777 131.16667 35018 ft 553 kts 121°
2026-05-06 09:58 36.46671 131.24675 35014 ft 551 kts 121°
2026-05-06 09:59 36.42540 131.32712 35027 ft 552 kts 121°
2026-05-06 09:59 36.38426 131.40758 35022 ft 549 kts 118°
2026-05-06 10:00 36.35427 131.49365 35036 ft 548 kts 108°
2026-05-06 10:00 36.32896 131.58237 35038 ft 547 kts 108°
2026-05-06 10:01 36.30340 131.67171 35034 ft 546 kts 109°
2026-05-06 10:01 36.27799 131.76009 35033 ft 545 kts 109°
2026-05-06 10:02 36.25260 131.84805 35036 ft 547 kts 109°
2026-05-06 10:02 36.22708 131.93613 35041 ft 542 kts 109°
2026-05-06 10:03 36.20155 132.02394 35047 ft 544 kts 110°
2026-05-06 10:03 36.17587 132.11194 35048 ft 546 kts 110°
2026-05-06 10:04 36.15006 132.20013 35047 ft 545 kts 110°
2026-05-06 10:04 36.12423 132.28809 35050 ft 545 kts 110°
2026-05-06 10:05 36.09810 132.37677 35057 ft 548 kts 111°
2026-05-06 10:05 36.07201 132.46510 35051 ft 547 kts 111°
2026-05-06 10:06 36.04574 132.55370 35058 ft 548 kts 111°
2026-05-06 10:06 36.01964 132.64146 35058 ft 547 kts 112°
2026-05-06 10:07 35.99331 132.72972 35042 ft 547 kts 113°
2026-05-06 10:07 35.96692 132.81790 35050 ft 549 kts 113°
2026-05-06 10:08 35.94045 132.90611 35047 ft 547 kts 114°
2026-05-06 10:08 35.91382 132.99454 35042 ft 551 kts 114°
2026-05-06 10:09 35.88716 133.08279 35059 ft 551 kts 115°
2026-05-06 10:09 35.86021 133.17174 35057 ft 555 kts 115°
2026-05-06 10:10 35.83322 133.26053 35065 ft 555 kts 115°
2026-05-06 10:10 35.80590 133.35013 35074 ft 560 kts 116°
2026-05-06 10:11 35.77857 133.43953 35071 ft 559 kts 117°
2026-05-06 10:11 35.75105 133.52922 35080 ft 559 kts 117°
2026-05-06 10:12 35.72353 133.61867 35085 ft 559 kts 117°
2026-05-06 10:12 35.69576 133.70860 35076 ft 561 kts 118°
2026-05-06 10:13 35.66806 133.79808 35080 ft 562 kts 119°
2026-05-06 10:13 35.64026 133.88763 35084 ft 556 kts 120°
2026-05-06 10:14 35.61246 133.97681 35086 ft 561 kts 120°
2026-05-06 10:14 35.58446 134.06639 35089 ft 562 kts 120°
2026-05-06 10:15 35.55641 134.15588 35090 ft 562 kts 120°
2026-05-06 10:15 35.52807 134.24599 35098 ft 562 kts 120°
2026-05-06 10:16 35.49968 134.33594 35105 ft 568 kts 120°
2026-05-06 10:16 35.47110 134.42629 35121 ft 569 kts 120°
2026-05-06 10:17 35.44260 134.51617 35143 ft 566 kts 121°
2026-05-06 10:17 35.41419 134.60548 35133 ft 562 kts 121°
2026-05-06 10:18 35.38543 134.69547 35113 ft 566 kts 121°
2026-05-06 10:18 35.35679 134.78497 35112 ft 565 kts 122°
2026-05-06 10:19 35.32802 134.87444 35106 ft 571 kts 121°
2026-05-06 10:19 35.29891 134.96480 35107 ft 570 kts 121°
2026-05-06 10:20 35.26980 135.05496 35112 ft 568 kts 121°
2026-05-06 10:20 35.24078 135.14450 35109 ft 568 kts 121°
2026-05-06 10:21 35.21152 135.23447 35117 ft 571 kts 121°
2026-05-06 10:21 35.18225 135.32423 35120 ft 569 kts 121°
2026-05-06 10:22 35.15294 135.41389 35128 ft 570 kts 122°
2026-05-06 10:22 35.12348 135.50371 35129 ft 569 kts 121°
2026-05-06 10:23 35.09409 135.59308 35134 ft 567 kts 121°
2026-05-06 10:23 35.06458 135.68247 35107 ft 569 kts 122°
2026-05-06 10:24 35.03525 135.77116 35111 ft 567 kts 122°
2026-05-06 10:24 35.00995 135.86278 35097 ft 582 kts 111°
2026-05-06 10:25 34.99443 135.95976 35115 ft 581 kts 109°
2026-05-06 10:25 34.97911 136.05653 35111 ft 583 kts 109°
2026-05-06 10:26 34.96363 136.15286 35123 ft 581 kts 109°
2026-05-06 10:26 34.94780 136.24988 35126 ft 584 kts 109°
2026-05-06 10:27 34.93193 136.34653 35127 ft 586 kts 109°
2026-05-06 10:27 34.91592 136.44333 35131 ft 582 kts 109°
2026-05-06 10:28 34.89991 136.53946 35138 ft 583 kts 109°
2026-05-06 10:28 34.88366 136.63643 35156 ft 582 kts 109°
2026-05-06 10:29 34.86751 136.73242 35143 ft 579 kts 110°
2026-05-06 10:29 34.85126 136.82823 35144 ft 582 kts 110°
2026-05-06 10:30 34.83492 136.92427 35149 ft 580 kts 110°
2026-05-06 10:30 34.82122 137.02115 35154 ft 585 kts 104°
2026-05-06 10:31 34.81100 137.11844 35149 ft 586 kts 104°
2026-05-06 10:31 34.80045 137.21617 35152 ft 583 kts 104°
2026-05-06 10:32 34.78963 137.31409 35156 ft 585 kts 104°
2026-05-06 10:32 34.77859 137.41237 35150 ft 585 kts 104°
2026-05-06 10:33 34.76744 137.51047 35154 ft 586 kts 105°
2026-05-06 10:33 34.75626 137.60780 35156 ft 585 kts 104°
2026-05-06 10:34 34.74503 137.70589 35130 ft 586 kts 104°
2026-05-06 10:34 34.73581 137.80365 35140 ft 588 kts 103°
2026-05-06 10:35 34.72654 137.90216 35146 ft 591 kts 103°
2026-05-06 10:35 34.71712 138.00082 35147 ft 588 kts 103°
2026-05-06 10:36 34.71434 138.09970 34800 ft 582 kts 95°
2026-05-06 10:36 34.71458 138.14926 33762 ft 586 kts 95°
2026-05-06 10:36 34.71479 138.19879 32306 ft 598 kts 95°
2026-05-06 10:37 34.71499 138.24930 31288 ft 598 kts 94°
2026-05-06 10:37 34.71519 138.29883 30925 ft 587 kts 94°
2026-05-06 10:37 34.71537 138.34822 30730 ft 573 kts 94°
2026-05-06 10:37 34.71551 138.39600 30239 ft 567 kts 95°
2026-05-06 10:38 34.71560 138.44342 29557 ft 565 kts 95°
2026-05-06 10:38 34.71566 138.49078 28886 ft 563 kts 94°
2026-05-06 10:38 34.71571 138.53850 28389 ft 557 kts 95°
2026-05-06 10:38 34.71574 138.58476 27956 ft 550 kts 95°
2026-05-06 10:39 34.71576 138.63049 27543 ft 543 kts 95°
2026-05-06 10:39 34.71575 138.67651 27062 ft 537 kts 95°
2026-05-06 10:39 34.71571 138.72163 26388 ft 535 kts 95°
2026-05-06 10:39 34.71567 138.76608 26147 ft 525 kts 95°
2026-05-06 10:40 34.71559 138.81055 26142 ft 532 kts 95°
2026-05-06 10:40 34.71542 138.85571 26141 ft 548 kts 95°
2026-05-06 10:40 34.71520 138.90254 26138 ft 564 kts 95°
2026-05-06 10:40 34.71498 138.95093 26140 ft 573 kts 95°
2026-05-06 10:41 34.71478 138.99924 26143 ft 572 kts 94°
2026-05-06 10:41 34.71457 139.04738 26142 ft 570 kts 94°
2026-05-06 10:41 34.71433 139.09532 26149 ft 571 kts 95°
2026-05-06 10:41 34.71407 139.14369 26145 ft 571 kts 95°
2026-05-06 10:42 34.71379 139.19141 26143 ft 571 kts 94°
2026-05-06 10:42 34.71349 139.23979 26147 ft 572 kts 95°
2026-05-06 10:42 34.71317 139.28819 26142 ft 570 kts 94°
2026-05-06 10:42 34.71347 139.33600 26143 ft 571 kts 90°
2026-05-06 10:43 34.71818 139.38330 26056 ft 564 kts 82°
2026-05-06 10:43 34.72780 139.42891 25786 ft 555 kts 73°
2026-05-06 10:43 34.74217 139.47249 25234 ft 551 kts 65°
2026-05-06 10:44 34.77987 139.55321 23789 ft 548 kts 58°
2026-05-06 10:44 34.79922 139.59274 23328 ft 541 kts 58°
2026-05-06 10:44 34.81821 139.63159 22916 ft 533 kts 58°
2026-05-06 10:44 34.83707 139.67026 22425 ft 528 kts 59°
2026-05-06 10:45 34.85595 139.70801 21850 ft 524 kts 55°
2026-05-06 10:45 34.87832 139.74272 21356 ft 516 kts 45°
2026-05-06 10:45 34.90409 139.77252 20889 ft 505 kts 36°
2026-05-06 10:45 34.93237 139.79671 20439 ft 492 kts 25°
2026-05-06 10:46 34.96223 139.81490 19990 ft 479 kts 16°
2026-05-06 10:46 34.99375 139.82724 19494 ft 465 kts
2026-05-06 10:46 35.02528 139.83337 18971 ft 452 kts 358°
2026-05-06 10:46 35.05597 139.83374 18617 ft 435 kts 350°
2026-05-06 10:47 35.08526 139.83087 18265 ft 411 kts 347°
2026-05-06 10:47 35.11319 139.82703 17968 ft 391 kts 347°
2026-05-06 10:47 35.13962 139.82336 17571 ft 376 kts 346°
2026-05-06 10:47 35.16634 139.81847 17176 ft 395 kts 344°
2026-05-06 10:48 35.19332 139.81230 16581 ft 395 kts 342°
2026-05-06 10:48 35.21990 139.80543 16042 ft 392 kts 342°
2026-05-06 10:48 35.24663 139.79811 15507 ft 390 kts 342°
2026-05-06 10:48 35.27349 139.79384 14971 ft 394 kts 353°
2026-05-06 10:49 35.30075 139.79596 14433 ft 397 kts
2026-05-06 10:49 35.32790 139.80452 13863 ft 400 kts 17°
2026-05-06 10:49 35.35307 139.81915 13336 ft 402 kts 28°
2026-05-06 10:49 35.37556 139.83861 12828 ft 401 kts 36°
2026-05-06 10:50 35.39767 139.85991 12293 ft 399 kts 37°
2026-05-06 10:50 35.41934 139.88106 11748 ft 397 kts 37°
2026-05-06 10:50 35.44037 139.90257 11199 ft 396 kts 42°
2026-05-06 10:50 35.46115 139.92372 10987 ft 382 kts 33°
2026-05-06 10:51 35.48392 139.93906 10903 ft 365 kts 20°
2026-05-06 10:51 35.50782 139.94725 10828 ft 346 kts
2026-05-06 10:51 35.53095 139.94681 10665 ft 330 kts 346°
2026-05-06 10:51 35.55267 139.93939 10338 ft 314 kts 329°
2026-05-06 10:52 35.57048 139.92560 10061 ft 299 kts 327°
2026-05-06 10:52 35.59001 139.91727 9727 ft 293 kts 353°
2026-05-06 10:52 35.61029 139.91789 9255 ft 293 kts
2026-05-06 10:52 35.62983 139.91534 8730 ft 285 kts 337°
2026-05-06 10:53 35.64737 139.90500 8320 ft 276 kts 324°
2026-05-06 10:53 35.66283 139.89191 7864 ft 272 kts 320°
2026-05-06 10:53 35.67764 139.87778 7399 ft 270 kts 318°
2026-05-06 10:53 35.69228 139.86328 6897 ft 269 kts 317°
2026-05-06 10:54 35.70665 139.84895 6480 ft 265 kts 318°
2026-05-06 10:54 35.71869 139.83694 6192 ft 262 kts 317°
2026-05-06 10:54 35.73145 139.82419 5912 ft 265 kts 318°
2026-05-06 10:54 35.74558 139.81007 5629 ft 263 kts 318°
2026-05-06 10:55 35.76121 139.79446 5324 ft 263 kts 318°
2026-05-06 10:55 35.77497 139.78073 5165 ft 253 kts 318°
2026-05-06 10:55 35.78831 139.76741 4948 ft 240 kts 318°
2026-05-06 10:55 35.80077 139.75494 4835 ft 224 kts 318°
2026-05-06 10:56 35.81228 139.74316 4786 ft 208 kts 311°
2026-05-06 10:56 35.81939 139.72809 4674 ft 202 kts 281°
2026-05-06 10:56 35.82122 139.71112 4413 ft 199 kts 270°
2026-05-06 10:56 35.82147 139.69437 4131 ft 193 kts 266°
2026-05-06 10:57 35.82143 139.67806 3990 ft 192 kts 265°
2026-05-06 10:57 35.82129 139.66179 3973 ft 193 kts 262°
2026-05-06 10:57 35.81684 139.64667 3967 ft 191 kts 229°
2026-05-06 10:57 35.80615 139.63757 3957 ft 187 kts 196°
2026-05-06 10:58 35.79423 139.63550 3967 ft 187 kts 183°
2026-05-06 10:58 35.78256 139.63538 3970 ft 185 kts 173°
2026-05-06 10:58 35.77140 139.64032 3974 ft 185 kts 155°
2026-05-06 10:58 35.76088 139.64766 3978 ft 187 kts 152°
2026-05-06 10:59 35.75125 139.65459 3974 ft 186 kts 152°
2026-05-06 10:59 35.73977 139.66280 3970 ft 181 kts 152°
2026-05-06 10:59 35.72015 139.67761 3681 ft 171 kts 151°
2026-05-06 11:00 35.70993 139.68495 3403 ft 167 kts 152°
2026-05-06 11:00 35.69985 139.69197 3166 ft 166 kts 152°
2026-05-06 11:00 35.68985 139.69896 2948 ft 166 kts 152°
2026-05-06 11:00 35.67981 139.70604 2725 ft 164 kts 152°
2026-05-06 11:01 35.66995 139.71300 2498 ft 165 kts 152°
2026-05-06 11:01 35.65992 139.72009 2272 ft 164 kts 152°
2026-05-06 11:01 35.65017 139.72699 2057 ft 165 kts 152°
2026-05-06 11:01 35.64020 139.73406 1821 ft 165 kts 152°
2026-05-06 11:02 35.63024 139.74110 1596 ft 166 kts 151°
2026-05-06 11:02 35.62019 139.74821 1366 ft 166 kts 152°
2026-05-06 11:02 35.61021 139.75528 1141 ft 165 kts 152°
2026-05-06 11:02 35.60015 139.76241 910 ft 166 kts 152°
2026-05-06 11:03 35.59012 139.76950 682 ft 167 kts 153°
2026-05-06 11:03 35.58001 139.77664 452 ft 166 kts 153°
2026-05-06 11:03 35.57003 139.78374 224 ft 166 kts 152°
2026-05-06 11:03 35.56033 139.79057 38 ft 151 kts 154°
2026-05-06 11:04 35.55265 139.79596 34 ft 103 kts 150°
2026-05-06 11:04 35.54803 139.79925 34 ft 44 kts 149°
2026-05-06 11:04 35.54617 139.80029 34 ft 24 kts 163°
2026-05-06 11:04 35.54481 139.80060 34 ft 15 kts 176°
2026-05-06 11:05 35.54443 139.80061 34 ft 1 kts 179°
2026-05-06 11:05 35.54438 139.80061 34 ft 4 kts 179°
2026-05-06 11:05 35.54346 139.80061 34 ft 17 kts 180°
2026-05-06 11:05 35.54249 139.80049 34 ft 10 kts 211°
2026-05-06 11:06 35.54211 139.79979 34 ft 9 kts 253°
2026-05-06 11:06 35.54240 139.79923 34 ft 8 kts 333°
2026-05-06 11:06 35.54294 139.79892 34 ft 9 kts 336°
2026-05-06 11:06 35.54362 139.79851 34 ft 12 kts 331°
2026-05-06 11:07 35.54446 139.79790 34 ft 15 kts 329°
2026-05-06 11:07 35.54546 139.79721 34 ft 17 kts 330°
2026-05-06 11:07 35.54663 139.79640 34 ft 20 kts 330°
2026-05-06 11:07 35.54768 139.79533 34 ft 16 kts 273°
2026-05-06 11:08 35.54729 139.79472 34 ft 5 kts 241°
2026-05-06 11:08 35.54712 139.79434 34 ft 6 kts 236°
2026-05-06 11:08 35.54681 139.79373 34 ft 11 kts 238°
2026-05-06 11:08 35.54669 139.79298 34 ft 8 kts 306°
2026-05-06 11:09 35.54717 139.79256 34 ft 8 kts 329°
2026-05-06 11:09 35.54758 139.79227 34 ft 6 kts 332°
2026-05-06 11:09 35.54779 139.79213 34 ft 1 kts 332°
2026-05-06 11:09 35.54784 139.79210 34 ft 0 kts 330°